Wetterdaten: Mittwoch, 29.07.2015
Datum Zeit Auen-Temp. Temp gefhlt Luftfeuchte Luftdruck Regen Wind Richtung Richtung Taupunkt Windben
29.07.2015 00:00 12,9 C 12,6 C 82 % 1007,3 hPa 0,7 mm 3,1 km/h (1 Bft) O 90 9,9 C 0,0 km/h (0 Bft)
29.07.2015 00:05 12,8 C 12,6 C 82 % 1007,3 hPa 0,0 mm 2,8 km/h (1 Bft) NW 315 9,8 C 4,1 km/h (1 Bft)
29.07.2015 00:10 12,8 C 12,6 C 83 % 1007,8 hPa 0,0 mm 2,8 km/h (1 Bft) NW 315 10,0 C 6,2 km/h (2 Bft)
29.07.2015 00:15 12,7 C 12,5 C 83 % 1007,8 hPa 0,7 mm 4,1 km/h (1 Bft) W 270 9,9 C 5,4 km/h (1 Bft)
29.07.2015 00:20 12,3 C 12,1 C 83 % 1007,8 hPa 0,0 mm 6,7 km/h (2 Bft) W-NW 292 9,5 C 23,0 km/h (4 Bft)
29.07.2015 00:25 12,2 C 11,9 C 83 % 1007,8 hPa 0,0 mm 8,0 km/h (2 Bft) W 270 9,4 C 10,4 km/h (2 Bft)
29.07.2015 00:30 12,1 C 11,9 C 83 % 1008,3 hPa 0,0 mm 5,2 km/h (1 Bft) SO 135 9,3 C 4,9 km/h (1 Bft)
29.07.2015 00:35 12,0 C 11,8 C 83 % 1008,3 hPa 0,7 mm 3,1 km/h (1 Bft) NO 45 9,2 C 0,0 km/h (0 Bft)
29.07.2015 00:40 11,8 C 11,6 C 84 % 1008,3 hPa 0,0 mm 4,7 km/h (1 Bft) S 180 9,2 C 9,8 km/h (2 Bft)
29.07.2015 00:45 11,7 C 11,5 C 84 % 1008,3 hPa 0,0 mm 6,7 km/h (2 Bft) S 180 9,1 C 17,3 km/h (3 Bft)
29.07.2015 00:50 11,6 C 11,4 C 84 % 1008,4 hPa 0,0 mm 7,3 km/h (2 Bft) S 180 9,0 C 5,4 km/h (1 Bft)
29.07.2015 00:55 11,6 C 11,4 C 84 % 1008,4 hPa 0,0 mm 6,0 km/h (2 Bft) S 180 9,0 C 5,7 km/h (1 Bft)
29.07.2015 01:00 11,5 C 11,3 C 84 % 1008,4 hPa 0,0 mm 4,9 km/h (1 Bft) S-SW 202 8,9 C 6,0 km/h (2 Bft)
29.07.2015 01:05 11,5 C 11,3 C 84 % 1008,4 hPa 0,0 mm 4,1 km/h (1 Bft) S 180 8,9 C 0,0 km/h (0 Bft)
29.07.2015 01:10 11,4 C 11,2 C 84 % 1008,2 hPa 0,0 mm 3,9 km/h (1 Bft) S-SW 202 8,8 C 7,8 km/h (2 Bft)
29.07.2015 01:15 11,4 C 11,2 C 85 % 1008,2 hPa 0,7 mm 4,1 km/h (1 Bft) SO 135 9,0 C 6,2 km/h (2 Bft)
29.07.2015 01:20 11,4 C 11,2 C 85 % 1008,2 hPa 0,0 mm 6,0 km/h (2 Bft) S-SW 202 9,0 C 3,6 km/h (1 Bft)
29.07.2015 01:25 11,3 C 11,1 C 85 % 1008,2 hPa 0,0 mm 4,4 km/h (1 Bft) W 270 8,9 C 0,0 km/h (0 Bft)
29.07.2015 01:30 11,3 C 11,1 C 85 % 1008,4 hPa 0,0 mm 1,0 km/h (0 Bft) S 180 8,9 C 0,0 km/h (0 Bft)
29.07.2015 01:35 11,3 C 11,1 C 85 % 1008,4 hPa 0,0 mm 1,3 km/h (1 Bft) S 180 8,9 C 4,1 km/h (1 Bft)
29.07.2015 01:40 11,3 C 11,1 C 85 % 1008,4 hPa 0,0 mm 3,1 km/h (1 Bft) W-SW 247 8,9 C 0,0 km/h (0 Bft)
29.07.2015 01:45 11,4 C 11,2 C 85 % 1008,4 hPa 0,0 mm 4,1 km/h (1 Bft) SO 135 9,0 C 4,9 km/h (1 Bft)
29.07.2015 01:50 11,4 C 11,2 C 85 % 1008,2 hPa 0,0 mm 3,1 km/h (1 Bft) S-SW 202 9,0 C 4,7 km/h (1 Bft)
29.07.2015 01:55 11,3 C 11,1 C 85 % 1008,2 hPa 0,0 mm 1,3 km/h (1 Bft) S-SO 157 8,9 C 0,0 km/h (0 Bft)
29.07.2015 02:00 11,3 C 11,1 C 86 % 1008,2 hPa 0,0 mm 1,8 km/h (1 Bft) S-SO 157 9,0 C 0,0 km/h (0 Bft)
29.07.2015 02:05 11,3 C 11,1 C 86 % 1008,2 hPa 0,0 mm 2,8 km/h (1 Bft) S-SO 157 9,0 C 6,2 km/h (2 Bft)
29.07.2015 02:10 11,3 C 11,1 C 86 % 1007,9 hPa 0,0 mm 2,8 km/h (1 Bft) SW 225 9,0 C 4,9 km/h (1 Bft)
29.07.2015 02:15 11,2 C 11,0 C 86 % 1007,9 hPa 0,0 mm 1,8 km/h (1 Bft) W-SW 247 8,9 C 0,0 km/h (0 Bft)
29.07.2015 02:20 11,1 C 10,9 C 86 % 1007,9 hPa 0,0 mm 0,5 km/h (0 Bft) S 180 8,8 C 0,0 km/h (0 Bft)
29.07.2015 02:25 11,1 C 10,9 C 86 % 1007,9 hPa 0,0 mm 0,0 km/h (0 Bft) S 180 8,8 C 0,0 km/h (0 Bft)
29.07.2015 02:30 11,1 C 10,9 C 86 % 1007,6 hPa 0,0 mm 0,0 km/h (0 Bft) S 180 8,8 C 0,0 km/h (0 Bft)
29.07.2015 02:35 11,1 C 10,9 C 86 % 1007,6 hPa 0,0 mm 0,0 km/h (0 Bft) S 180 8,8 C 0,0 km/h (0 Bft)
29.07.2015 02:40 11,1 C 10,9 C 86 % 1007,6 hPa 0,0 mm 0,0 km/h (0 Bft) S 180 8,8 C 0,0 km/h (0 Bft)
29.07.2015 02:45 11,1 C 10,9 C 86 % 1007,6 hPa 0,0 mm 0,0 km/h (0 Bft) S 180 8,8 C 0,0 km/h (0 Bft)
29.07.2015 02:50 11,0 C 10,8 C 86 % 1007,7 hPa 0,0 mm 0,0 km/h (0 Bft) S 180 8,7 C 0,0 km/h (0 Bft)
29.07.2015 02:55 11,0 C 10,8 C 87 % 1007,7 hPa 0,0 mm 0,0 km/h (0 Bft) SO 135 8,9 C 0,0 km/h (0 Bft)
29.07.2015 03:00 10,9 C 10,8 C 87 % 1007,7 hPa 0,0 mm 0,5 km/h (0 Bft) SO 135 8,8 C 0,0 km/h (0 Bft)
29.07.2015 03:05 10,8 C 10,7 C 88 % 1007,8 hPa 0,0 mm 1,3 km/h (1 Bft) SO 135 8,9 C 4,7 km/h (1 Bft)
29.07.2015 03:06 10,8 C 10,7 C 88 % 1007,8 hPa 0,0 mm 1,3 km/h (1 Bft) SO 135 8,9 C 4,7 km/h (1 Bft)
29.07.2015 03:10 10,8 C 10,7 C 88 % 1007,8 hPa 0,0 mm 1,3 km/h (1 Bft) SO 135 8,9 C 4,7 km/h (1 Bft)
29.07.2015 03:15 10,8 C 10,6 C 88 % 1007,8 hPa 0,0 mm 2,8 km/h (1 Bft) S 180 8,9 C 3,6 km/h (1 Bft)
29.07.2015 03:20 10,7 C 10,5 C 88 % 1007,8 hPa 0,0 mm 3,1 km/h (1 Bft) S 180 8,8 C 0,0 km/h (0 Bft)
29.07.2015 03:25 10,7 C 10,5 C 88 % 1007,8 hPa 0,0 mm 1,6 km/h (1 Bft) SO 135 8,8 C 0,0 km/h (0 Bft)
29.07.2015 03:30 10,7 C 10,6 C 85 % 1007,8 hPa 0,0 mm 0,3 km/h (0 Bft) S-SO 157 8,3 C 0,0 km/h (0 Bft)
29.07.2015 03:35 10,7 C 10,6 C 85 % 1007,8 hPa 0,0 mm 0,0 km/h (0 Bft) S 180 8,3 C 0,0 km/h (0 Bft)
29.07.2015 03:40 10,8 C 10,6 C 88 % 1007,8 hPa 0,0 mm 0,0 km/h (0 Bft) SO 135 8,9 C 0,0 km/h (0 Bft)
29.07.2015 03:45 10,7 C 10,6 C 88 % 1007,8 hPa 0,0 mm 0,0 km/h (0 Bft) SO 135 8,8 C 2,6 km/h (1 Bft)
29.07.2015 03:50 10,7 C 10,6 C 88 % 1007,7 hPa 0,0 mm 1,3 km/h (1 Bft) SO 135 8,8 C 0,0 km/h (0 Bft)
29.07.2015 03:55 10,7 C 10,6 C 88 % 1007,7 hPa 0,0 mm 1,3 km/h (1 Bft) S-SO 157 8,8 C 0,0 km/h (0 Bft)
29.07.2015 04:00 10,7 C 10,6 C 88 % 1007,7 hPa 0,0 mm 0,3 km/h (0 Bft) S-SW 202 8,8 C 3,4 km/h (1 Bft)
29.07.2015 04:05 10,7 C 10,6 C 88 % 1007,7 hPa 0,0 mm 0,0 km/h (0 Bft) SW 225 8,8 C 0,0 km/h (0 Bft)
29.07.2015 04:10 10,7 C 10,6 C 85 % 1008,0 hPa 0,0 mm 0,0 km/h (0 Bft) S-SO 157 8,3 C 0,0 km/h (0 Bft)
29.07.2015 04:15 10,7 C 10,6 C 88 % 1008,0 hPa 0,7 mm 0,0 km/h (0 Bft) SO 135 8,8 C 0,0 km/h (0 Bft)
29.07.2015 04:20 10,7 C 10,6 C 86 % 1008,0 hPa 0,0 mm 0,0 km/h (0 Bft) SO 135 8,5 C 0,0 km/h (0 Bft)
29.07.2015 04:25 10,7 C 10,7 C 86 % 1008,0 hPa 0,0 mm 0,0 km/h (0 Bft) SO 135 8,5 C 0,0 km/h (0 Bft)
29.07.2015 04:30 10,7 C 10,7 C 86 % 1007,6 hPa 0,0 mm 0,0 km/h (0 Bft) SO 135 8,5 C 0,0 km/h (0 Bft)
29.07.2015 04:35 10,7 C 10,7 C 86 % 1007,6 hPa 0,0 mm 0,0 km/h (0 Bft) SO 135 8,5 C 0,0 km/h (0 Bft)
29.07.2015 04:40 10,8 C 10,7 C 88 % 1007,6 hPa 0,0 mm 0,0 km/h (0 Bft) S 180 8,9 C 0,0 km/h (0 Bft)
29.07.2015 04:45 10,8 C 10,7 C 88 % 1007,6 hPa 0,0 mm 0,0 km/h (0 Bft) S 180 8,9 C 0,0 km/h (0 Bft)
29.07.2015 04:50 10,8 C 10,7 C 88 % 1007,3 hPa 0,0 mm 0,0 km/h (0 Bft) W-SW 247 8,9 C 0,0 km/h (0 Bft)
29.07.2015 04:55 10,8 C 10,7 C 88 % 1007,3 hPa 0,0 mm 0,0 km/h (0 Bft) W-SW 247 8,9 C 0,0 km/h (0 Bft)
29.07.2015 05:00 10,8 C 10,8 C 86 % 1007,3 hPa 0,0 mm 0,0 km/h (0 Bft) W-SW 247 8,6 C 0,0 km/h (0 Bft)
29.07.2015 05:05 10,8 C 10,8 C 86 % 1007,3 hPa 0,0 mm 0,0 km/h (0 Bft) O-NO 67 8,6 C 0,0 km/h (0 Bft)
29.07.2015 05:10 10,8 C 10,8 C 86 % 1007,4 hPa 0,0 mm 0,0 km/h (0 Bft) O-NO 67 8,6 C 0,0 km/h (0 Bft)
29.07.2015 05:15 10,8 C 10,8 C 86 % 1007,4 hPa 0,0 mm 0,0 km/h (0 Bft) O 90 8,6 C 0,0 km/h (0 Bft)
29.07.2015 05:20 10,9 C 10,8 C 86 % 1007,4 hPa 0,0 mm 0,0 km/h (0 Bft) O 90 8,7 C 0,0 km/h (0 Bft)
29.07.2015 05:25 10,9 C 10,8 C 88 % 1007,4 hPa 0,0 mm 0,0 km/h (0 Bft) O 90 9,0 C 0,0 km/h (0 Bft)
29.07.2015 05:30 10,9 C 10,8 C 88 % 1007,3 hPa 0,0 mm 0,0 km/h (0 Bft) S-SO 157 9,0 C 0,0 km/h (0 Bft)
29.07.2015 05:35 10,8 C 10,8 C 86 % 1007,3 hPa 0,0 mm 0,0 km/h (0 Bft) S-SW 202 8,6 C 0,0 km/h (0 Bft)
29.07.2015 05:40 10,8 C 10,8 C 86 % 1007,3 hPa 0,0 mm 0,0 km/h (0 Bft) SW 225 8,6 C 0,0 km/h (0 Bft)
29.07.2015 05:45 10,9 C 10,8 C 88 % 1007,3 hPa 0,0 mm 0,0 km/h (0 Bft) W-SW 247 9,0 C 0,0 km/h (0 Bft)
29.07.2015 05:50 10,8 C 10,8 C 86 % 1007,2 hPa 0,0 mm 0,5 km/h (0 Bft) O-NO 67 8,6 C 0,0 km/h (0 Bft)
29.07.2015 05:55 10,8 C 10,8 C 86 % 1007,2 hPa 0,0 mm 1,3 km/h (1 Bft) W 270 8,6 C 0,0 km/h (0 Bft)
29.07.2015 06:00 10,9 C 10,8 C 86 % 1007,2 hPa 0,0 mm 1,3 km/h (1 Bft) W 270 8,7 C 0,0 km/h (0 Bft)
29.07.2015 06:05 10,9 C 10,8 C 86 % 1007,2 hPa 0,0 mm 0,5 km/h (0 Bft) N-NW 337 8,7 C 0,0 km/h (0 Bft)
29.07.2015 06:10 10,9 C 10,8 C 86 % 1007,1 hPa 0,0 mm 1,0 km/h (0 Bft) N-NO 22 8,7 C 6,0 km/h (2 Bft)
29.07.2015 06:15 10,9 C 10,8 C 86 % 1007,1 hPa 0,0 mm 1,3 km/h (1 Bft) W 270 8,7 C 5,7 km/h (1 Bft)
29.07.2015 06:20 11,0 C 10,9 C 88 % 1007,1 hPa 0,0 mm 2,1 km/h (1 Bft) N-NO 22 9,1 C 2,8 km/h (1 Bft)
29.07.2015 06:25 11,0 C 10,9 C 88 % 1007,1 hPa 0,0 mm 1,8 km/h (1 Bft) NW 315 9,1 C 2,6 km/h (1 Bft)
29.07.2015 06:30 11,0 C 10,9 C 88 % 1007,2 hPa 0,0 mm 2,3 km/h (1 Bft) S-SW 202 9,1 C 0,0 km/h (0 Bft)
29.07.2015 06:35 11,0 C 10,9 C 86 % 1007,2 hPa 0,0 mm 1,6 km/h (1 Bft) O-NO 67 8,7 C 0,0 km/h (0 Bft)
29.07.2015 06:40 11,0 C 10,9 C 86 % 1007,2 hPa 0,0 mm 1,0 km/h (0 Bft) O-SO 112 8,7 C 7,5 km/h (2 Bft)
29.07.2015 06:45 11,1 C 10,9 C 88 % 1007,2 hPa 0,0 mm 2,3 km/h (1 Bft) W-NW 292 9,2 C 7,0 km/h (2 Bft)
29.07.2015 06:50 11,1 C 11,0 C 86 % 1007,0 hPa 0,0 mm 2,1 km/h (1 Bft) W 270 8,8 C 0,0 km/h (0 Bft)
29.07.2015 06:55 11,2 C 11,0 C 88 % 1007,0 hPa 0,0 mm 0,8 km/h (0 Bft) W-SW 247 9,3 C 0,0 km/h (0 Bft)
29.07.2015 07:00 11,1 C 11,1 C 86 % 1007,0 hPa 0,0 mm 0,0 km/h (0 Bft) O-SO 112 8,8 C 0,0 km/h (0 Bft)
29.07.2015 07:05 11,2 C 11,1 C 88 % 1007,0 hPa 0,0 mm 0,0 km/h (0 Bft) O-NO 67 9,3 C 0,0 km/h (0 Bft)
29.07.2015 07:10 11,3 C 11,4 C 86 % 1006,8 hPa 0,0 mm 0,0 km/h (0 Bft) N-NW 337 9,0 C 0,0 km/h (0 Bft)
29.07.2015 07:15 11,4 C 11,5 C 86 % 1006,8 hPa 0,0 mm 0,0 km/h (0 Bft) O-SO 112 9,1 C 0,0 km/h (0 Bft)
29.07.2015 07:20 11,6 C 11,9 C 86 % 1006,8 hPa 0,0 mm 0,5 km/h (0 Bft) NW 315 9,3 C 0,0 km/h (0 Bft)
29.07.2015 07:25 11,8 C 12,1 C 86 % 1006,8 hPa 0,0 mm 1,0 km/h (0 Bft) O 90 9,5 C 0,0 km/h (0 Bft)
29.07.2015 07:30 11,9 C 12,3 C 86 % 1006,6 hPa 0,0 mm 0,5 km/h (0 Bft) NW 315 9,6 C 0,0 km/h (0 Bft)
29.07.2015 07:35 12,0 C 12,5 C 86 % 1006,6 hPa 0,0 mm 0,0 km/h (0 Bft) W-NW 292 9,7 C 0,0 km/h (0 Bft)
29.07.2015 07:40 12,0 C 12,4 C 86 % 1006,6 hPa 0,0 mm 0,0 km/h (0 Bft) W-NW 292 9,7 C 0,0 km/h (0 Bft)
29.07.2015 07:45 12,0 C 12,2 C 86 % 1006,6 hPa 0,0 mm 0,0 km/h (0 Bft) O-NO 67 9,7 C 0,0 km/h (0 Bft)
29.07.2015 07:50 12,1 C 12,3 C 86 % 1006,6 hPa 0,0 mm 0,3 km/h (0 Bft) O-NO 67 9,8 C 2,8 km/h (1 Bft)
29.07.2015 07:55 12,2 C 12,4 C 86 % 1006,6 hPa 0,0 mm 0,5 km/h (0 Bft) NW 315 9,9 C 2,6 km/h (1 Bft)
29.07.2015 08:00 12,3 C 12,5 C 86 % 1006,6 hPa 0,0 mm 0,5 km/h (0 Bft) W 270 10,0 C 0,0 km/h (0 Bft)
29.07.2015 08:05 12,3 C 12,6 C 86 % 1006,6 hPa 0,0 mm 0,3 km/h (0 Bft) O-NO 67 10,0 C 0,0 km/h (0 Bft)
29.07.2015 08:10 12,5 C 12,7 C 86 % 1006,6 hPa 0,0 mm 0,0 km/h (0 Bft) SO 135 10,2 C 0,0 km/h (0 Bft)
29.07.2015 08:15 12,6 C 12,9 C 86 % 1006,6 hPa 0,0 mm 0,0 km/h (0 Bft) W-SW 247 10,3 C 0,0 km/h (0 Bft)
29.07.2015 08:20 12,6 C 13,0 C 86 % 1006,6 hPa 0,0 mm 0,0 km/h (0 Bft) S 180 10,3 C 0,0 km/h (0 Bft)
29.07.2015 08:25 12,6 C 13,0 C 86 % 1006,6 hPa 0,0 mm 0,0 km/h (0 Bft) S-SO 157 10,3 C 0,0 km/h (0 Bft)
29.07.2015 08:30 12,6 C 13,0 C 86 % 1006,4 hPa 0,0 mm 0,3 km/h (0 Bft) NO 45 10,3 C 3,4 km/h (1 Bft)
29.07.2015 08:35 12,7 C 13,1 C 86 % 1006,4 hPa 0,0 mm 0,5 km/h (0 Bft) NO 45 10,4 C 3,9 km/h (1 Bft)
29.07.2015 08:40 13,2 C 13,7 C 85 % 1006,4 hPa 0,0 mm 0,5 km/h (0 Bft) O-NO 67 10,7 C 0,0 km/h (0 Bft)
29.07.2015 08:45 13,6 C 15,5 C 85 % 1006,4 hPa 0,0 mm 1,0 km/h (0 Bft) O-NO 67 11,1 C 0,0 km/h (0 Bft)
29.07.2015 08:50 14,3 C 17,7 C 84 % 1006,1 hPa 0,0 mm 1,3 km/h (1 Bft) N-NO 22 11,6 C 0,0 km/h (0 Bft)
29.07.2015 08:55 14,6 C 18,4 C 84 % 1006,1 hPa 0,0 mm 0,8 km/h (0 Bft) N-NO 22 11,9 C 2,8 km/h (1 Bft)
29.07.2015 09:00 14,3 C 17,5 C 83 % 1006,1 hPa 0,0 mm 0,5 km/h (0 Bft) N-NO 22 11,5 C 0,0 km/h (0 Bft)
29.07.2015 09:05 14,5 C 17,8 C 83 % 1006,1 hPa 0,0 mm 0,5 km/h (0 Bft) O-NO 67 11,6 C 0,0 km/h (0 Bft)
29.07.2015 09:07 14,7 C 18,5 C 83 % 1006,4 hPa 0,0 mm 0,3 km/h (0 Bft) N-NO 22 11,8 C 0,0 km/h (0 Bft)
29.07.2015 09:10 14,7 C 18,5 C 83 % 1006,4 hPa 0,0 mm 0,3 km/h (0 Bft) N-NO 22 11,8 C 0,0 km/h (0 Bft)
29.07.2015 09:15 14,9 C 19,0 C 82 % 1006,4 hPa 0,0 mm 0,3 km/h (0 Bft) N-NO 22 11,9 C 0,0 km/h (0 Bft)
29.07.2015 09:20 14,7 C 18,7 C 82 % 1006,4 hPa 0,0 mm 0,8 km/h (0 Bft) NO 45 11,7 C 2,8 km/h (1 Bft)
29.07.2015 09:25 14,7 C 18,1 C 81 % 1006,4 hPa 0,0 mm 2,1 km/h (1 Bft) NO 45 11,5 C 7,0 km/h (2 Bft)
29.07.2015 09:30 14,7 C 17,4 C 81 % 1006,4 hPa 0,0 mm 3,1 km/h (1 Bft) O-NO 67 11,5 C 4,9 km/h (1 Bft)
29.07.2015 09:35 14,9 C 17,7 C 81 % 1006,4 hPa 0,0 mm 2,6 km/h (1 Bft) N-NW 337 11,7 C 0,0 km/h (0 Bft)
29.07.2015 09:40 15,6 C 19,5 C 81 % 1006,4 hPa 0,0 mm 2,1 km/h (1 Bft) N-NW 337 12,3 C 0,0 km/h (0 Bft)
29.07.2015 09:45 16,1 C 20,7 C 79 % 1006,4 hPa 0,0 mm 1,8 km/h (1 Bft) N-NO 22 12,5 C 4,4 km/h (1 Bft)
29.07.2015 09:50 16,6 C 22,0 C 79 % 1005,5 hPa 0,0 mm 1,6 km/h (1 Bft) O-NO 67 12,9 C 0,0 km/h (0 Bft)
29.07.2015 09:55 17,1 C 23,1 C 78 % 1005,5 hPa 0,0 mm 1,8 km/h (1 Bft) O-NO 67 13,2 C 0,0 km/h (0 Bft)
29.07.2015 10:00 17,8 C 25,1 C 77 % 1005,5 hPa 0,0 mm 1,0 km/h (0 Bft) N 360 13,7 C 6,2 km/h (2 Bft)
29.07.2015 10:05 17,9 C 25,8 C 76 % 1005,5 hPa 0,0 mm 2,6 km/h (1 Bft) O-NO 67 13,6 C 6,0 km/h (2 Bft)
29.07.2015 10:10 17,7 C 25,0 C 76 % 1005,8 hPa 0,0 mm 3,1 km/h (1 Bft) N-NO 22 13,4 C 3,9 km/h (1 Bft)
29.07.2015 10:15 17,9 C 24,7 C 75 % 1005,8 hPa 0,0 mm 2,1 km/h (1 Bft) NO 45 13,4 C 2,8 km/h (1 Bft)
29.07.2015 10:20 18,2 C 25,5 C 74 % 1005,8 hPa 0,0 mm 2,1 km/h (1 Bft) O-NO 67 13,5 C 0,0 km/h (0 Bft)
29.07.2015 10:25 18,2 C 25,8 C 73 % 1005,8 hPa 0,0 mm 2,1 km/h (1 Bft) N-NO 22 13,3 C 0,0 km/h (0 Bft)
29.07.2015 10:30 18,4 C 25,0 C 72 % 1006,1 hPa 0,0 mm 2,3 km/h (1 Bft) N-NO 22 13,3 C 7,0 km/h (2 Bft)
29.07.2015 10:35 18,7 C 25,4 C 72 % 1006,1 hPa 0,0 mm 3,9 km/h (1 Bft) N-NO 22 13,5 C 9,8 km/h (2 Bft)
29.07.2015 10:40 18,7 C 25,6 C 71 % 1006,1 hPa 0,0 mm 6,0 km/h (2 Bft) N-NW 337 13,3 C 7,3 km/h (2 Bft)
29.07.2015 10:45 18,9 C 26,0 C 70 % 1006,1 hPa 0,0 mm 5,2 km/h (1 Bft) NO 45 13,3 C 6,5 km/h (2 Bft)
29.07.2015 10:50 18,9 C 25,9 C 69 % 1006,1 hPa 0,0 mm 4,9 km/h (1 Bft) NO 45 13,1 C 0,0 km/h (0 Bft)
29.07.2015 10:55 19,2 C 26,6 C 69 % 1006,1 hPa 0,0 mm 4,7 km/h (1 Bft) NW 315 13,4 C 7,5 km/h (2 Bft)
29.07.2015 11:00 19,2 C 26,9 C 67 % 1006,1 hPa 0,0 mm 3,4 km/h (1 Bft) S-SO 157 12,9 C 6,0 km/h (2 Bft)
29.07.2015 11:05 19,2 C 26,9 C 67 % 1006,1 hPa 0,0 mm 3,6 km/h (1 Bft) S 180 12,9 C 4,1 km/h (1 Bft)
29.07.2015 11:10 19,7 C 27,6 C 67 % 1006,1 hPa 0,0 mm 2,8 km/h (1 Bft) O-NO 67 13,4 C 3,9 km/h (1 Bft)
29.07.2015 11:15 19,6 C 27,4 C 67 % 1006,1 hPa 0,0 mm 2,6 km/h (1 Bft) SO 135 13,3 C 4,1 km/h (1 Bft)
29.07.2015 11:20 19,4 C 26,6 C 67 % 1006,1 hPa 0,0 mm 2,3 km/h (1 Bft) S-SO 157 13,1 C 0,0 km/h (0 Bft)
29.07.2015 11:25 19,2 C 26,3 C 66 % 1006,1 hPa 0,0 mm 2,6 km/h (1 Bft) O-NO 67 12,7 C 8,3 km/h (2 Bft)
29.07.2015 11:30 19,1 C 25,3 C 66 % 1006,1 hPa 0,0 mm 3,4 km/h (1 Bft) S-SO 157 12,6 C 4,4 km/h (1 Bft)
29.07.2015 11:35 19,3 C 25,3 C 66 % 1006,1 hPa 0,0 mm 3,4 km/h (1 Bft) O-SO 112 12,8 C 6,0 km/h (2 Bft)
29.07.2015 11:40 20,0 C 25,5 C 67 % 1006,1 hPa 0,0 mm 2,8 km/h (1 Bft) W-SW 247 13,7 C 6,5 km/h (2 Bft)
29.07.2015 11:45 20,4 C 27,0 C 66 % 1006,1 hPa 0,0 mm 3,4 km/h (1 Bft) N-NW 337 13,8 C 3,6 km/h (1 Bft)
29.07.2015 11:50 21,1 C 27,8 C 65 % 1006,1 hPa 0,0 mm 5,4 km/h (1 Bft) W-SW 247 14,3 C 3,1 km/h (1 Bft)
29.07.2015 11:55 20,8 C 27,5 C 64 % 1006,1 hPa 0,0 mm 6,2 km/h (2 Bft) N-NO 22 13,7 C 8,8 km/h (2 Bft)
29.07.2015 12:00 20,0 C 25,3 C 64 % 1006,1 hPa 0,0 mm 5,2 km/h (1 Bft) SW 225 13,0 C 0,0 km/h (0 Bft)
29.07.2015 12:05 19,9 C 24,5 C 65 % 1006,1 hPa 0,0 mm 4,7 km/h (1 Bft) NW 315 13,1 C 4,1 km/h (1 Bft)
29.07.2015 12:10 19,9 C 23,6 C 65 % 1006,0 hPa 0,0 mm 4,9 km/h (1 Bft) W-SW 247 13,1 C 5,4 km/h (1 Bft)
29.07.2015 12:15 19,9 C 23,2 C 65 % 1006,0 hPa 0,0 mm 7,5 km/h (2 Bft) W 270 13,1 C 16,3 km/h (3 Bft)
29.07.2015 12:20 19,9 C 22,8 C 65 % 1006,0 hPa 0,0 mm 9,1 km/h (2 Bft) NW 315 13,1 C 13,7 km/h (3 Bft)
29.07.2015 12:25 20,2 C 23,4 C 65 % 1006,0 hPa 0,0 mm 9,8 km/h (2 Bft) W-NW 292 13,4 C 13,2 km/h (3 Bft)
29.07.2015 12:30 20,5 C 24,1 C 64 % 1006,0 hPa 0,0 mm 9,6 km/h (2 Bft) W 270 13,5 C 7,3 km/h (2 Bft)
29.07.2015 12:35 20,0 C 23,7 C 63 % 1006,0 hPa 0,0 mm 9,3 km/h (2 Bft) W 270 12,7 C 7,5 km/h (2 Bft)
29.07.2015 12:40 19,9 C 23,1 C 64 % 1006,0 hPa 0,0 mm 7,3 km/h (2 Bft) S-SO 157 12,9 C 4,4 km/h (1 Bft)
29.07.2015 12:45 19,9 C 23,0 C 64 % 1006,0 hPa 0,0 mm 6,5 km/h (2 Bft) NW 315 12,9 C 12,2 km/h (2 Bft)
29.07.2015 12:50 19,8 C 22,5 C 64 % 1005,9 hPa 0,0 mm 8,0 km/h (2 Bft) W 270 12,8 C 23,3 km/h (4 Bft)
29.07.2015 12:55 19,4 C 22,5 C 61 % 1005,9 hPa 0,0 mm 11,1 km/h (2 Bft) W-NW 292 11,7 C 14,5 km/h (3 Bft)
29.07.2015 13:00 18,9 C 21,7 C 61 % 1005,9 hPa 0,0 mm 12,7 km/h (3 Bft) NW 315 11,2 C 34,2 km/h (5 Bft)
29.07.2015 13:05 18,9 C 21,5 C 62 % 1005,9 hPa 0,0 mm 12,9 km/h (3 Bft) W-NW 292 11,5 C 17,1 km/h (3 Bft)
29.07.2015 13:10 18,9 C 21,5 C 63 % 1005,7 hPa 0,0 mm 13,2 km/h (3 Bft) W 270 11,7 C 21,2 km/h (4 Bft)
29.07.2015 13:15 19,0 C 21,7 C 62 % 1005,7 hPa 0,0 mm 14,0 km/h (3 Bft) NW 315 11,6 C 21,5 km/h (4 Bft)
29.07.2015 13:20 18,9 C 21,7 C 63 % 1005,7 hPa 0,0 mm 12,9 km/h (3 Bft) W 270 11,7 C 12,2 km/h (2 Bft)
29.07.2015 13:25 18,7 C 21,5 C 62 % 1005,7 hPa 0,0 mm 14,0 km/h (3 Bft) SW 225 11,3 C 18,1 km/h (3 Bft)
29.07.2015 13:30 18,8 C 21,7 C 63 % 1005,9 hPa 0,0 mm 12,9 km/h (3 Bft) W 270 11,6 C 10,1 km/h (2 Bft)
29.07.2015 13:35 18,9 C 21,8 C 63 % 1005,9 hPa 0,0 mm 12,2 km/h (2 Bft) NW 315 11,7 C 20,5 km/h (4 Bft)
29.07.2015 13:40 18,6 C 21,3 C 63 % 1005,9 hPa 0,0 mm 14,0 km/h (3 Bft) NW 315 11,4 C 17,1 km/h (3 Bft)
29.07.2015 13:45 18,4 C 20,6 C 64 % 1005,9 hPa 0,0 mm 14,8 km/h (3 Bft) W 270 11,5 C 15,0 km/h (3 Bft)
29.07.2015 13:50 18,2 C 19,9 C 65 % 1005,9 hPa 0,0 mm 11,7 km/h (2 Bft) W-NW 292 11,5 C 7,0 km/h (2 Bft)
29.07.2015 13:55 18,3 C 20,3 C 65 % 1005,9 hPa 0,0 mm 9,1 km/h (2 Bft) W-NW 292 11,6 C 18,4 km/h (3 Bft)
29.07.2015 14:00 18,7 C 22,1 C 65 % 1005,9 hPa 0,0 mm 9,1 km/h (2 Bft) W-NW 292 12,0 C 11,4 km/h (2 Bft)
29.07.2015 14:05 18,8 C 22,3 C 65 % 1005,9 hPa 0,0 mm 9,3 km/h (2 Bft) W-NW 292 12,1 C 7,8 km/h (2 Bft)
29.07.2015 14:10 18,0 C 21,3 C 65 % 1006,2 hPa 0,0 mm 12,7 km/h (3 Bft) NW 315 11,3 C 18,6 km/h (3 Bft)
29.07.2015 14:15 17,6 C 19,9 C 67 % 1006,2 hPa 0,0 mm 15,0 km/h (3 Bft) W 270 11,4 C 12,7 km/h (3 Bft)
29.07.2015 14:20 17,2 C 18,8 C 68 % 1006,2 hPa 0,0 mm 14,2 km/h (3 Bft) NW 315 11,2 C 12,7 km/h (3 Bft)
29.07.2015 14:25 17,1 C 18,4 C 69 % 1006,2 hPa 0,0 mm 10,9 km/h (2 Bft) W-NW 292 11,4 C 4,1 km/h (1 Bft)
29.07.2015 14:30 17,3 C 18,1 C 70 % 1006,0 hPa 0,0 mm 9,6 km/h (2 Bft) NW 315 11,8 C 13,7 km/h (3 Bft)
29.07.2015 14:35 17,3 C 18,3 C 71 % 1006,0 hPa 0,0 mm 10,1 km/h (2 Bft) W 270 12,0 C 18,9 km/h (3 Bft)
29.07.2015 14:40 17,4 C 19,2 C 72 % 1006,0 hPa 0,0 mm 11,4 km/h (2 Bft) W 270 12,3 C 9,3 km/h (2 Bft)
29.07.2015 14:45 17,2 C 19,2 C 72 % 1006,0 hPa 0,0 mm 11,4 km/h (2 Bft) W-NW 292 12,1 C 7,0 km/h (2 Bft)
29.07.2015 14:50 17,1 C 19,3 C 72 % 1006,1 hPa 0,0 mm 11,1 km/h (2 Bft) W 270 12,0 C 12,4 km/h (3 Bft)
29.07.2015 14:55 16,8 C 18,6 C 72 % 1006,1 hPa 0,0 mm 10,1 km/h (2 Bft) SW 225 11,7 C 6,2 km/h (2 Bft)
29.07.2015 15:00 16,8 C 18,0 C 73 % 1006,1 hPa 0,0 mm 7,5 km/h (2 Bft) S-SO 157 11,9 C 3,1 km/h (1 Bft)
29.07.2015 15:05 16,9 C 18,4 C 73 % 1006,1 hPa 0,0 mm 4,9 km/h (1 Bft) S-SW 202 12,0 C 6,0 km/h (2 Bft)
29.07.2015 15:09 17,0 C 18,7 C 72 % 1006,1 hPa 0,0 mm 7,8 km/h (2 Bft) W 270 11,9 C 13,5 km/h (3 Bft)
29.07.2015 15:10 17,0 C 18,7 C 72 % 1006,1 hPa 0,0 mm 7,8 km/h (2 Bft) W 270 11,9 C 13,5 km/h (3 Bft)
29.07.2015 15:15 17,0 C 18,6 C 73 % 1006,1 hPa 0,0 mm 8,8 km/h (2 Bft) S 180 12,1 C 10,6 km/h (2 Bft)
29.07.2015 15:20 17,1 C 19,0 C 73 % 1006,1 hPa 0,0 mm 6,2 km/h (2 Bft) N-NO 22 12,2 C 5,7 km/h (1 Bft)
29.07.2015 15:25 17,2 C 19,1 C 72 % 1006,1 hPa 0,0 mm 5,4 km/h (1 Bft) SO 135 12,1 C 6,0 km/h (2 Bft)
29.07.2015 15:30 17,3 C 19,4 C 73 % 1006,1 hPa 0,0 mm 4,7 km/h (1 Bft) W 270 12,4 C 7,8 km/h (2 Bft)
29.07.2015 15:35 17,2 C 19,1 C 72 % 1006,1 hPa 0,0 mm 4,7 km/h (1 Bft) W-SW 247 12,1 C 7,8 km/h (2 Bft)
29.07.2015 15:40 17,0 C 18,6 C 73 % 1006,1 hPa 0,0 mm 5,2 km/h (1 Bft) S 180 12,1 C 8,0 km/h (2 Bft)
29.07.2015 15:45 17,0 C 18,5 C 73 % 1006,1 hPa 0,0 mm 4,9 km/h (1 Bft) NW 315 12,1 C 0,0 km/h (0 Bft)
29.07.2015 15:50 17,2 C 19,1 C 73 % 1005,8 hPa 0,0 mm 6,0 km/h (2 Bft) W-NW 292 12,3 C 11,1 km/h (2 Bft)
29.07.2015 15:55 17,2 C 19,3 C 73 % 1005,8 hPa 0,0 mm 6,5 km/h (2 Bft) SW 225 12,3 C 6,5 km/h (2 Bft)
29.07.2015 16:00 17,3 C 19,4 C 73 % 1005,8 hPa 0,0 mm 6,5 km/h (2 Bft) W-NW 292 12,4 C 5,2 km/h (1 Bft)
29.07.2015 16:05 17,4 C 19,5 C 73 % 1005,8 hPa 0,0 mm 5,2 km/h (1 Bft) S 180 12,5 C 13,2 km/h (3 Bft)
29.07.2015 16:10 17,8 C 20,0 C 73 % 1005,9 hPa 0,0 mm 6,0 km/h (2 Bft) W-NW 292 12,9 C 8,5 km/h (2 Bft)
29.07.2015 16:15 18,0 C 21,6 C 72 % 1005,9 hPa 0,0 mm 8,0 km/h (2 Bft) W-NW 292 12,9 C 9,3 km/h (2 Bft)
29.07.2015 16:20 17,8 C 20,8 C 72 % 1005,9 hPa 0,0 mm 8,3 km/h (2 Bft) S 180 12,7 C 5,2 km/h (1 Bft)
29.07.2015 16:25 17,7 C 20,3 C 71 % 1005,9 hPa 0,0 mm 8,3 km/h (2 Bft) W 270 12,4 C 19,9 km/h (4 Bft)
29.07.2015 16:30 17,9 C 20,2 C 72 % 1006,0 hPa 0,0 mm 7,8 km/h (2 Bft) W 270 12,8 C 8,5 km/h (2 Bft)
29.07.2015 16:35 17,9 C 20,6 C 71 % 1006,0 hPa 0,0 mm 6,7 km/h (2 Bft) NW 315 12,6 C 0,0 km/h (0 Bft)
29.07.2015 16:40 18,1 C 21,0 C 71 % 1006,0 hPa 0,0 mm 7,0 km/h (2 Bft) S 180 12,8 C 21,8 km/h (4 Bft)
29.07.2015 16:45 18,2 C 21,1 C 71 % 1006,0 hPa 0,0 mm 7,5 km/h (2 Bft) S 180 12,9 C 8,8 km/h (2 Bft)
29.07.2015 16:50 18,0 C 20,3 C 71 % 1006,1 hPa 0,0 mm 6,2 km/h (2 Bft) W 270 12,7 C 9,8 km/h (2 Bft)
29.07.2015 16:55 17,8 C 19,5 C 72 % 1006,1 hPa 0,0 mm 4,7 km/h (1 Bft) NW 315 12,7 C 5,2 km/h (1 Bft)
29.07.2015 17:00 17,3 C 18,5 C 71 % 1006,1 hPa 0,0 mm 7,8 km/h (2 Bft) NW 315 12,0 C 23,3 km/h (4 Bft)
29.07.2015 17:05 17,0 C 17,5 C 72 % 1006,1 hPa 0,0 mm 9,1 km/h (2 Bft) NO 45 11,9 C 7,0 km/h (2 Bft)
29.07.2015 17:10 16,6 C 16,4 C 73 % 1006,2 hPa 0,0 mm 8,0 km/h (2 Bft) SW 225 11,7 C 7,0 km/h (2 Bft)
29.07.2015 17:15 16,5 C 16,3 C 74 % 1006,2 hPa 0,0 mm 6,2 km/h (2 Bft) S 180 11,8 C 3,9 km/h (1 Bft)
29.07.2015 17:20 16,3 C 16,1 C 75 % 1006,2 hPa 0,0 mm 5,2 km/h (1 Bft) S 180 11,9 C 7,3 km/h (2 Bft)
29.07.2015 17:25 16,2 C 16,0 C 75 % 1006,2 hPa 0,0 mm 3,9 km/h (1 Bft) S 180 11,8 C 0,0 km/h (0 Bft)
29.07.2015 17:30 16,2 C 16,0 C 76 % 1006,4 hPa 0,0 mm 1,0 km/h (0 Bft) SW 225 12,0 C 0,0 km/h (0 Bft)
29.07.2015 17:35 16,2 C 16,1 C 76 % 1006,4 hPa 0,0 mm 0,8 km/h (0 Bft) W 270 12,0 C 4,4 km/h (1 Bft)
29.07.2015 17:40 16,1 C 15,9 C 76 % 1006,4 hPa 0,0 mm 1,0 km/h (0 Bft) S-SW 202 11,9 C 4,7 km/h (1 Bft)
29.07.2015 17:45 16,1 C 16,0 C 77 % 1006,4 hPa 0,0 mm 2,6 km/h (1 Bft) SW 225 12,1 C 6,2 km/h (2 Bft)
29.07.2015 17:50 15,9 C 15,7 C 78 % 1006,4 hPa 0,0 mm 6,7 km/h (2 Bft) W-NW 292 12,1 C 8,5 km/h (2 Bft)
29.07.2015 17:55 15,6 C 15,4 C 78 % 1006,4 hPa 0,7 mm 8,3 km/h (2 Bft) W-SW 247 11,8 C 15,8 km/h (3 Bft)
29.07.2015 18:00 15,4 C 15,1 C 79 % 1006,4 hPa 0,0 mm 5,4 km/h (1 Bft) NW 315 11,8 C 7,3 km/h (2 Bft)
29.07.2015 18:05 15,4 C 15,1 C 80 % 1006,4 hPa 0,0 mm 5,2 km/h (1 Bft) S-SW 202 12,0 C 15,3 km/h (3 Bft)
29.07.2015 18:10 15,4 C 15,1 C 80 % 1006,5 hPa 0,0 mm 4,1 km/h (1 Bft) N-NW 337 12,0 C 9,6 km/h (2 Bft)
29.07.2015 18:15 15,3 C 15,2 C 79 % 1006,5 hPa 0,0 mm 3,9 km/h (1 Bft) O-NO 67 11,7 C 5,2 km/h (1 Bft)
29.07.2015 18:20 15,0 C 14,8 C 82 % 1006,5 hPa 0,0 mm 8,8 km/h (2 Bft) S-SO 157 12,0 C 8,0 km/h (2 Bft)
29.07.2015 18:25 14,9 C 14,6 C 82 % 1006,5 hPa 0,0 mm 10,6 km/h (2 Bft) SW 225 11,9 C 24,9 km/h (4 Bft)
29.07.2015 18:30 14,6 C 14,4 C 83 % 1006,7 hPa 0,0 mm 9,8 km/h (2 Bft) W-SW 247 11,7 C 11,7 km/h (2 Bft)
29.07.2015 18:35 14,6 C 14,3 C 83 % 1006,7 hPa 0,0 mm 8,0 km/h (2 Bft) S-SW 202 11,7 C 4,1 km/h (1 Bft)
29.07.2015 18:40 14,6 C 14,3 C 83 % 1006,7 hPa 0,0 mm 5,7 km/h (1 Bft) S 180 11,7 C 4,4 km/h (1 Bft)
29.07.2015 18:45 14,6 C 14,3 C 83 % 1006,7 hPa 0,0 mm 4,9 km/h (1 Bft) SW 225 11,7 C 8,8 km/h (2 Bft)
29.07.2015 18:50 14,6 C 14,4 C 81 % 1006,7 hPa 0,0 mm 3,9 km/h (1 Bft) W 270 11,4 C 3,6 km/h (1 Bft)
29.07.2015 18:55 14,6 C 14,4 C 83 % 1006,7 hPa 0,0 mm 4,7 km/h (1 Bft) N 360 11,7 C 2,6 km/h (1 Bft)
29.07.2015 19:00 14,6 C 14,4 C 81 % 1006,7 hPa 0,0 mm 4,7 km/h (1 Bft) S 180 11,4 C 6,0 km/h (2 Bft)
29.07.2015 19:05 14,7 C 14,6 C 82 % 1006,7 hPa 0,0 mm 4,4 km/h (1 Bft) NW 315 11,7 C 11,7 km/h (2 Bft)
29.07.2015 19:10 14,7 C 14,7 C 82 % 1006,8 hPa 0,0 mm 4,9 km/h (1 Bft) S 180 11,7 C 12,9 km/h (3 Bft)
29.07.2015 19:15 14,7 C 14,6 C 82 % 1006,8 hPa 0,0 mm 4,7 km/h (1 Bft) W 270 11,7 C 9,1 km/h (2 Bft)
29.07.2015 19:20 14,7 C 14,5 C 82 % 1006,8 hPa 0,0 mm 5,4 km/h (1 Bft) W 270 11,7 C 4,4 km/h (1 Bft)
29.07.2015 19:25 14,6 C 14,5 C 82 % 1006,8 hPa 0,0 mm 4,4 km/h (1 Bft) NW 315 11,6 C 5,4 km/h (1 Bft)
29.07.2015 19:30 14,6 C 14,5 C 82 % 1007,2 hPa 0,0 mm 4,7 km/h (1 Bft) W 270 11,6 C 4,9 km/h (1 Bft)
29.07.2015 19:35 14,6 C 14,4 C 83 % 1007,2 hPa 0,0 mm 6,5 km/h (2 Bft) S-SW 202 11,7 C 14,2 km/h (3 Bft)
29.07.2015 19:40 14,5 C 14,2 C 83 % 1007,2 hPa 0,0 mm 6,7 km/h (2 Bft) W 270 11,6 C 3,4 km/h (1 Bft)
29.07.2015 19:45 14,4 C 14,1 C 83 % 1007,2 hPa 0,0 mm 4,9 km/h (1 Bft) NO 45 11,5 C 0,0 km/h (0 Bft)
29.07.2015 19:50 14,4 C 14,1 C 83 % 1007,4 hPa 0,0 mm 3,1 km/h (1 Bft) S 180 11,5 C 13,2 km/h (3 Bft)
29.07.2015 19:55 14,3 C 14,1 C 82 % 1007,4 hPa 0,0 mm 3,1 km/h (1 Bft) S-SO 157 11,3 C 5,4 km/h (1 Bft)
29.07.2015 20:00 14,3 C 14,1 C 82 % 1007,4 hPa 0,0 mm 4,7 km/h (1 Bft) NW 315 11,3 C 13,5 km/h (3 Bft)
29.07.2015 20:05 14,3 C 14,1 C 82 % 1007,4 hPa 0,0 mm 4,4 km/h (1 Bft) SW 225 11,3 C 7,5 km/h (2 Bft)
29.07.2015 20:10 14,2 C 13,9 C 83 % 1007,6 hPa 0,0 mm 4,7 km/h (1 Bft) NW 315 11,4 C 7,5 km/h (2 Bft)
29.07.2015 20:15 14,2 C 13,9 C 83 % 1007,6 hPa 0,0 mm 4,1 km/h (1 Bft) W 270 11,4 C 7,3 km/h (2 Bft)
29.07.2015 20:20 14,2 C 13,9 C 83 % 1007,6 hPa 0,0 mm 2,8 km/h (1 Bft) NW 315 11,4 C 2,6 km/h (1 Bft)
29.07.2015 20:25 14,1 C 13,8 C 83 % 1007,6 hPa 0,0 mm 1,8 km/h (1 Bft) NW 315 11,3 C 3,4 km/h (1 Bft)
29.07.2015 20:30 14,0 C 13,7 C 83 % 1007,9 hPa 0,0 mm 1,6 km/h (1 Bft) W 270 11,2 C 5,7 km/h (1 Bft)
29.07.2015 20:35 13,8 C 13,5 C 83 % 1007,9 hPa 0,7 mm 3,9 km/h (1 Bft) W-NW 292 11,0 C 15,0 km/h (3 Bft)
29.07.2015 20:40 13,6 C 13,4 C 84 % 1007,9 hPa 0,7 mm 7,3 km/h (2 Bft) NW 315 10,9 C 9,8 km/h (2 Bft)
29.07.2015 20:45 13,4 C 13,2 C 84 % 1007,9 hPa 0,7 mm 8,5 km/h (2 Bft) W 270 10,8 C 5,2 km/h (1 Bft)
29.07.2015 20:50 13,2 C 13,1 C 85 % 1008,2 hPa 0,7 mm 6,0 km/h (2 Bft) W-SW 247 10,7 C 11,1 km/h (2 Bft)
29.07.2015 20:55 13,1 C 13,0 C 85 % 1008,2 hPa 0,7 mm 4,4 km/h (1 Bft) W 270 10,6 C 2,8 km/h (1 Bft)
29.07.2015 21:00 13,1 C 12,9 C 85 % 1008,2 hPa 0,0 mm 2,1 km/h (1 Bft) SO 135 10,6 C 0,0 km/h (0 Bft)
29.07.2015 21:05 13,0 C 12,9 C 85 % 1008,2 hPa 0,0 mm 0,8 km/h (0 Bft) W 270 10,5 C 0,0 km/h (0 Bft)
29.07.2015 21:10 13,0 C 12,8 C 85 % 1008,2 hPa 0,0 mm 0,8 km/h (0 Bft) SO 135 10,5 C 2,8 km/h (1 Bft)
29.07.2015 21:15 12,9 C 12,8 C 86 % 1008,2 hPa 0,0 mm 1,3 km/h (1 Bft) W-SW 247 10,6 C 0,0 km/h (0 Bft)
29.07.2015 21:20 12,9 C 12,8 C 86 % 1008,2 hPa 0,0 mm 1,6 km/h (1 Bft) SW 225 10,6 C 8,8 km/h (2 Bft)
29.07.2015 21:25 12,9 C 12,8 C 87 % 1008,2 hPa 0,0 mm 3,9 km/h (1 Bft) NW 315 10,8 C 13,5 km/h (3 Bft)
29.07.2015 21:30 12,6 C 12,4 C 87 % 1009,1 hPa 0,7 mm 9,6 km/h (2 Bft) W-NW 292 10,5 C 9,1 km/h (2 Bft)
29.07.2015 21:35 12,5 C 12,3 C 87 % 1009,1 hPa 0,7 mm 10,9 km/h (2 Bft) N-NO 22 10,4 C 21,5 km/h (4 Bft)
29.07.2015 21:40 12,0 C 11,8 C 87 % 1009,1 hPa 0,7 mm 11,1 km/h (2 Bft) W 270 9,9 C 9,3 km/h (2 Bft)
29.07.2015 21:45 11,9 C 11,7 C 87 % 1009,1 hPa 0,0 mm 12,4 km/h (3 Bft) W-NW 292 9,8 C 13,5 km/h (3 Bft)
29.07.2015 21:50 11,8 C 11,5 C 88 % 1009,4 hPa 0,7 mm 9,8 km/h (2 Bft) W-NW 292 9,9 C 8,8 km/h (2 Bft)
29.07.2015 21:55 11,7 C 11,6 C 88 % 1009,4 hPa 0,0 mm 8,3 km/h (2 Bft) SW 225 9,8 C 8,0 km/h (2 Bft)
29.07.2015 22:00 11,7 C 11,6 C 88 % 1009,4 hPa 0,7 mm 6,7 km/h (2 Bft) W-NW 292 9,8 C 6,5 km/h (2 Bft)
29.07.2015 22:05 11,6 C 11,5 C 88 % 1009,4 hPa 0,0 mm 5,7 km/h (1 Bft) W 270 9,7 C 5,2 km/h (1 Bft)
29.07.2015 22:10 11,6 C 11,4 C 88 % 1009,8 hPa 0,0 mm 3,1 km/h (1 Bft) W-NW 292 9,7 C 4,1 km/h (1 Bft)
29.07.2015 22:15 11,6 C 11,4 C 88 % 1009,8 hPa 0,0 mm 2,1 km/h (1 Bft) S 180 9,7 C 3,4 km/h (1 Bft)
29.07.2015 22:20 11,6 C 11,4 C 88 % 1009,8 hPa 0,0 mm 2,1 km/h (1 Bft) SW 225 9,7 C 2,8 km/h (1 Bft)
29.07.2015 22:25 11,5 C 11,4 C 88 % 1009,8 hPa 0,0 mm 3,1 km/h (1 Bft) W-SW 247 9,6 C 10,9 km/h (2 Bft)
29.07.2015 22:30 11,5 C 11,3 C 88 % 1009,8 hPa 0,0 mm 3,6 km/h (1 Bft) W-NW 292 9,6 C 3,6 km/h (1 Bft)
29.07.2015 22:35 11,5 C 11,3 C 88 % 1009,8 hPa 0,0 mm 3,1 km/h (1 Bft) SW 225 9,6 C 7,8 km/h (2 Bft)
29.07.2015 22:40 11,4 C 11,2 C 88 % 1009,8 hPa 0,0 mm 3,4 km/h (1 Bft) S-SO 157 9,5 C 4,9 km/h (1 Bft)
29.07.2015 22:45 11,3 C 11,1 C 88 % 1009,8 hPa 0,0 mm 3,4 km/h (1 Bft) S-SW 202 9,4 C 0,0 km/h (0 Bft)
29.07.2015 22:50 11,1 C 10,9 C 87 % 1010,2 hPa 0,0 mm 3,6 km/h (1 Bft) SW 225 9,0 C 3,9 km/h (1 Bft)
29.07.2015 22:55 11,1 C 10,9 C 87 % 1010,2 hPa 0,0 mm 2,8 km/h (1 Bft) SW 225 9,0 C 4,1 km/h (1 Bft)
29.07.2015 23:00 10,9 C 10,7 C 87 % 1010,2 hPa 0,0 mm 3,6 km/h (1 Bft) S 180 8,8 C 10,9 km/h (2 Bft)
29.07.2015 23:05 10,9 C 10,7 C 87 % 1010,2 hPa 0,0 mm 3,9 km/h (1 Bft) NW 315 8,8 C 2,8 km/h (1 Bft)
29.07.2015 23:10 10,7 C 10,5 C 87 % 1010,2 hPa 0,7 mm 5,4 km/h (1 Bft) SW 225 8,6 C 9,8 km/h (2 Bft)
29.07.2015 23:15 10,6 C 10,4 C 87 % 1010,2 hPa 0,0 mm 5,7 km/h (1 Bft) S 180 8,5 C 14,8 km/h (3 Bft)
29.07.2015 23:20 10,5 C 10,3 C 87 % 1010,2 hPa 0,0 mm 6,2 km/h (2 Bft) S 180 8,4 C 3,6 km/h (1 Bft)
29.07.2015 23:25 10,5 C 10,3 C 87 % 1010,2 hPa 0,0 mm 5,4 km/h (1 Bft) W-SW 247 8,4 C 7,5 km/h (2 Bft)
29.07.2015 23:30 10,4 C 10,1 C 86 % 1010,4 hPa 0,0 mm 4,4 km/h (1 Bft) W-SW 247 8,2 C 0,0 km/h (0 Bft)
29.07.2015 23:35 10,3 C 10,0 C 86 % 1010,4 hPa 0,0 mm 4,7 km/h (1 Bft) S 180 8,1 C 6,0 km/h (2 Bft)
29.07.2015 23:40 10,1 C 9,8 C 86 % 1010,4 hPa 0,0 mm 5,2 km/h (1 Bft) S 180 7,9 C 7,3 km/h (2 Bft)
29.07.2015 23:45 10,1 C 9,8 C 86 % 1010,4 hPa 0,0 mm 5,4 km/h (1 Bft) S 180 7,9 C 2,6 km/h (1 Bft)
29.07.2015 23:50 10,0 C 9,7 C 86 % 1010,4 hPa 0,0 mm 4,1 km/h (1 Bft) S 180 7,8 C 4,7 km/h (1 Bft)
29.07.2015 23:55 10,0 C 9,7 C 86 % 1010,4 hPa 0,0 mm 3,4 km/h (1 Bft) W-SW 247 7,8 C 4,4 km/h (1 Bft)
_ Min-Zeit 23:55 23:55 13:00 10:05 - 08:25 - - 23:55 23:30
Minimum _ 10,0 C 9,7 C 61 % 1005,5 hPa - 0,0 km/h (0 Bft) - - 7,8 C 0,0 km/h (0 Bft)
_ Max-Zeit 11:50 11:50 22:45 23:55 23:10 14:15 - - 11:50 13:00
Maximum _ 21,1 C 27,8 C 88 % 1010,4 hPa 0,7 mm 15,0 km/h
W (3 Bft)
- - 14,3 C 34,2 km/h
NW (5 Bft)
Durchschnitt _ 14,2 C 15,4 C 80 % 1007,2 hPa #11,7 mm 4,2 km/h (1 Bft) W - 10,7 C 5,6 km/h (1 Bft)